Starlink 31872

operational
NORAD ID: 59922 Int'l Des: 2024-106 Owner: SPXS Country: US Constellation: starlink
LEOCIRCULAR

Starlink 31872について

説明を読み込み中...

リアルタイム位置

3D地球を読み込み中...

次回通過

高度履歴

Altitude vs Time

uPlot chart will show altitude changes over time

軌道要素

1 59922U 24106A 26033.86977923 .00008350 00000-0 31241-3 0 9995
2 59922 42.9968 169.5017 0000667 237.4065 122.6722 15.27601193 95238
Epoch: Feb 2, 2026 • Age: 17 hours

現在のステータス

高度 494.8 km
速度 7.62 km/s
衛星直下点 -40.52°S, 72.55°E
打ち上げ日 Jun 1, 2024
運用期間 1.6 years
タイプ internet

技術仕様

分類 Payload
質量 730.00 kg
乾燥質量 700.00 kg
総質量 730.00 kg
長さ 0.30 m
直径 4.10 m
スパン 29.00 m
形状 Box + pan
製造者 SPXS
バスタイプ Starlink V2M
フェーズステータス In Orbit
所有者/国 SPXS/US

大規模コンステレーション

Loading constellations...